This is the latest recevied weather packets stored in our database for station/object W3JGB. If no packets are shown the sender has not sent any weather packets the latest 10 day(s).
| Time | Temp. | Humidity | Pressure | Rain* | Wind** | Luminosity | Snow |
|---|---|---|---|---|---|---|---|
| 1777462266 | 10.56° C | 92% | 1014.2 hPa | 0 mm | - | 20 W/m² | - |
| 1777461961 | 10.56° C | 91% | 1014.1 hPa | 0 mm | - | 17 W/m² | - |
| 1777461659 | 10.56° C | 92% | 1014.1 hPa | 0 mm | - | 16 W/m² | - |
| 1777461359 | 10.56° C | 93% | 1014.1 hPa | 0 mm | - | 15 W/m² | - |
| 1777461056 | 10.56° C | 94% | 1014 hPa | 0 mm | - | 16 W/m² | - |
| 1777460751 | 10° C | 95% | 1014 hPa | 0 mm | - | 16 W/m² | - |
| 1777460447 | 10° C | 95% | 1014 hPa | 0 mm | - | 12 W/m² | - |
| 1777460142 | 10° C | 96% | 1014 hPa | 0 mm | - | 12 W/m² | - |
| 1777459840 | 10° C | 96% | 1014 hPa | 0 mm | - | 10 W/m² | - |
| 1777459537 | 10° C | 96% | 1013.8 hPa | 0 mm | - | 9 W/m² | - |
| 1777459235 | 10° C | 96% | 1014 hPa | 0 mm | - | 7 W/m² | - |
| 1777458932 | 10° C | 96% | 1013.8 hPa | 0 mm | - | 6 W/m² | - |
| 1777458628 | 10° C | 96% | 1013.9 hPa | 0 mm | - | 2 W/m² | - |
| 1777458325 | 10° C | 95% | 1013.7 hPa | 0 mm | - | 2 W/m² | - |
| 1777458020 | 10° C | 95% | 1013.7 hPa | 0 mm | - | 1 W/m² | - |
| 1777457717 | 10° C | 95% | 1013.5 hPa | 0 mm | - | 0 W/m² | - |
| 1777457417 | 10° C | 96% | 1013.7 hPa | 0 mm | - | 0 W/m² | - |
| 1777457112 | 10° C | 96% | 1013.9 hPa | 0 mm | - | 0 W/m² | - |
| 1777456809 | 10° C | 97% | 1013.7 hPa | 0 mm | - | 0 W/m² | - |
| 1777456508 | 10° C | 97% | 1013.8 hPa | 0 mm | - | 0 W/m² | - |
| 1777456204 | 10° C | 96% | 1013.6 hPa | 0 mm | - | 0 W/m² | - |
| 1777455900 | 10° C | 96% | 1013.8 hPa | 0 mm | - | 0 W/m² | - |
| 1777455597 | 10° C | 96% | 1014 hPa | 0 mm | - | 0 W/m² | - |
| 1777455293 | 10° C | 95% | 1014.1 hPa | 0 mm | - | 0 W/m² | - |
| 1777454990 | 10° C | 96% | 1013.9 hPa | 0 mm | - | 0 W/m² | - |
* Rain latest hour (hover to see other rain measurements)
** Current wind speed in m/s (hover to see current wind gust speed)